This is the latest recevied weather packets stored in our database for station/object K4AGR-13. If no packets are shown the sender has not sent any weather packets the latest 10 day(s).
| Time | Temp. | Humidity | Pressure | Rain* | Wind** | Luminosity | Snow |
|---|---|---|---|---|---|---|---|
| 1777211368 | 24.44° C | 72% | 1012.3 hPa | 0 mm | - | 421 W/m² | - |
| 1777211063 | 23.89° C | 72% | 1012.1 hPa | 0 mm | - | 504 W/m² | - |
| 1777210755 | 23.89° C | 73% | 1012.2 hPa | 0 mm | - | 467 W/m² | - |
| 1777210454 | 23.89° C | 74% | 1012.2 hPa | 0 mm | - | 436 W/m² | - |
| 1777210150 | 23.33° C | 77% | 1012.1 hPa | 0 mm | - | 347 W/m² | - |
| 1777209847 | 22.78° C | 80% | 1011.8 hPa | 0 mm | - | 288 W/m² | - |
| 1777209542 | 22.22° C | 80% | 1012 hPa | 0 mm | - | 258 W/m² | - |
| 1777209238 | 21.67° C | 82% | 1012.2 hPa | 0 mm | - | 238 W/m² | - |
| 1777208936 | 21.67° C | 83% | 1012.2 hPa | 0 mm | - | 221 W/m² | - |
| 1777208631 | 21.11° C | 86% | 1012.1 hPa | 0 mm | - | 189 W/m² | - |
| 1777208328 | 20.56° C | 87% | 1012 hPa | 0 mm | - | 156 W/m² | - |
| 1777208024 | 20° C | 91% | 1012 hPa | 0 mm | - | 147 W/m² | - |
| 1777207720 | 19.44° C | 94% | 1012 hPa | 0 mm | - | 134 W/m² | - |
| 1777207414 | 18.89° C | 96% | 1012.2 hPa | 0 mm | - | 127 W/m² | - |
| 1777207114 | 18.33° C | 97% | 1012.1 hPa | 0 mm | - | 111 W/m² | - |
| 1777206810 | 18.33° C | 97% | 1011.8 hPa | 0 mm | - | 106 W/m² | - |
| 1777206510 | 17.78° C | 97% | 1011.7 hPa | 0 mm | - | 114 W/m² | - |
| 1777206206 | 17.78° C | 97% | 1011.7 hPa | 0 mm | - | 109 W/m² | - |
| 1777205901 | 17.78° C | 97% | 1011.7 hPa | 0 mm | - | 82 W/m² | - |
| 1777205598 | 17.22° C | 98% | 1011.7 hPa | 0 mm | - | 64 W/m² | - |
| 1777205295 | 17.22° C | 98% | 1011.6 hPa | 0 mm | - | 52 W/m² | - |
| 1777204991 | 17.22° C | 98% | 1011.5 hPa | 0 mm | - | 44 W/m² | - |
| 1777204686 | 17.22° C | 98% | 1011.4 hPa | 0 mm | - | 55 W/m² | - |
| 1777204381 | 17.22° C | 98% | 1011.4 hPa | 0 mm | - | 58 W/m² | - |
| 1777204078 | 16.67° C | 98% | 1011.4 hPa | 0 mm | - | 46 W/m² | - |
* Rain latest hour (hover to see other rain measurements)
** Current wind speed in m/s (hover to see current wind gust speed)